Wind_Speed
29 30 29 28 28 28 27 25 24 22 21 19 17 15 15 14 14 12 11 10 9 9 7 6 6 5 4 3 2 1 1 0 0 0 1 1 2 2 3 3 4 5 6
30 30 31 30 29 29 29 28 27 25 24 23 21 19 19 17 17 16 15 14 12 11 10 9 8 7 6 5 5 4 3 2 2 2 3 3 3 4 4 5 6 6 7
33 33 32 32 31 30 29 30 29 28 27 26 24 23 21 20 20 20 19 18 16 14 13 12 11 10 9 8 7 7 6 5 5 5 5 5 5 6 6 7 7 8 8
39 38 35 34 34 34 34 33 31 30 30 28 27 25 24 23 24 24 23 21 19 18 16 15 14 13 12 11 10 10 9 8 8 8 7 7 7 8 8 9 9 9 10
41 40 40 38 36 35 35 35 34 32 31 30 29 28 28 27 28 27 26 24 22 21 20 18 17 15 14 13 13 12 12 11 11 10 10 10 10 10 10 10 11 11 11
40 41 41 40 39 37 36 36 34 33 32 32 31 30 29 30 30 29 28 26 25 23 22 21 20 19 17 16 15 14 14 14 13 13 13 12 12 12 12 12 12 12 13
38 39 40 40 40 39 37 37 35 33 32 32 32 31 30 31 31 31 30 28 27 26 24 23 23 21 20 19 18 16 16 16 15 15 15 15 15 14 14 14 14 14 14
38 38 40 40 40 40 40 38 37 35 33 31 31 32 32 31 32 32 31 30 30 28 27 25 24 24 23 22 20 19 18 18 18 17 17 17 17 17 16 16 15 15 16
38 37 38 40 40 41 40 39 39 37 35 34 32 32 32 32 33 32 32 31 30 30 29 28 27 26 25 24 23 22 21 20 20 19 19 19 19 19 18 18 17 17 17
37 37 38 39 40 41 41 40 40 40 38 36 34 33 33 33 34 34 33 32 31 30 29 29 29 28 27 26 24 23 22 22 21 20 20 20 20 20 20 19 19 19 19
35 35 37 38 39 41 41 41 41 41 39 38 37 36 35 34 35 36 35 34 32 31 29 29 29 29 28 27 25 24 24 23 23 22 21 21 21 21 21 21 21 21 21
30 32 34 36 38 39 41 42 42 41 40 40 39 38 36 35 35 37 37 37 35 33 30 29 28 28 27 27 27 26 25 25 24 23 23 23 22 22 22 22 22 22 22
24 27 29 31 35 37 39 41 42 42 41 41 41 40 39 38 37 38 38 37 36 35 34 32 30 29 27 27 27 26 25 25 25 25 24 24 24 24 24 24 24 24 24
16 19 22 26 30 34 38 40 41 42 41 40 41 41 39 38 38 40 39 38 37 37 35 34 32 30 29 28 26 26 26 26 25 25 25 25 25 26 26 25 25 25 25
11 13 16 19 23 28 33 38 41 41 41 40 40 40 39 38 39 40 39 38 37 37 36 35 34 32 31 30 28 28 28 28 27 27 26 26 26 27 27 27 27 27 27
7 8 11 14 18 22 27 32 36 40 40 39 38 38 38 38 37 39 40 39 39 37 36 36 35 33 32 32 30 29 29 28 28 29 28 28 28 27 28 28 29 29 30
8 7 7 9 11 16 20 25 30 35 36 37 38 38 37 38 37 37 37 37 37 37 37 37 36 35 34 33 32 31 30 31 31 29 29 30 30 30 31 30 30 31 30
10 8 7 7 8 10 14 19 24 29 32 34 36 37 37 37 38 38 38 37 37 37 37 37 36 36 35 35 34 33 33 32 31 30 29 29 29 30 31 31 31 30 29
12 10 8 7 7 7 11 15 19 22 26 30 32 33 34 34 36 38 39 38 37 37 37 37 36 36 35 34 34 33 32 32 30 29 28 28 28 29 30 29 29 29 28
14 12 10 8 7 7 8 12 15 18 21 25 27 29 30 31 32 33 35 37 37 37 36 36 36 35 34 33 33 32 31 30 29 28 28 28 28 28 28 27 27 26 25
15 14 12 10 9 8 9 10 13 16 19 22 24 25 27 29 29 29 30 32 34 35 33 33 33 32 32 31 30 30 28 28 28 28 28 28 28 28 27 26 25 24 22
17 15 14 12 11 9 10 11 12 14 16 19 21 23 24 25 26 27 27 28 29 29 30 30 30 30 30 30 29 29 28 29 28 27 27 26 26 25 25 23 22 21 19
19 17 16 14 13 11 10 11 12 13 15 17 18 20 22 22 23 24 25 25 25 25 26 27 27 27 28 29 29 29 28 28 27 26 26 25 24 23 22 21 19 18 17
20 19 18 16 14 13 11 11 11 12 14 16 17 18 19 20 21 21 21 22 22 23 24 25 25 26 26 26 26 26 27 27 26 25 24 23 23 22 20 19 18 17 16
22 21 20 18 17 15 12 10 10 10 13 15 16 17 19 19 19 19 20 20 21 21 22 22 22 23 24 25 25 26 26 26 26 25 24 23 22 21 19 18 17 15 14
24 23 22 21 19 17 14 11 9 8 10 12 14 16 17 18 18 18 18 19 19 19 20 20 21 22 22 23 24 25 25 25 24 23 23 22 21 19 18 17 16 14 13
Wind_Direction
254 253 253 254 251 249 247 244 240 238 238 236 235 233 235 238 240 240 237 235 235 236 235 233 231 228 221 215 207 192 172 167 21 352 335 321 325 322 298 292 287 281 272
258 257 253 254 252 249 247 244 240 239 238 237 236 234 234 237 242 244 243 240 239 239 239 240 241 241 241 242 244 246 251 261 273 288 295 302 308 312 311 305 301 298 292
261 260 257 254 252 250 249 246 243 239 238 237 235 234 234 237 243 246 245 243 241 241 242 242 244 246 248 249 252 257 262 266 272 279 286 293 298 300 303 304 303 302 300
260 261 260 257 255 253 252 250 248 244 239 236 235 234 234 236 240 244 245 244 242 241 242 243 245 247 250 252 253 256 261 267 272 278 283 286 291 293 296 298 299 300 299
258 258 259 258 257 256 255 254 250 247 243 239 236 233 232 233 236 240 242 243 242 242 242 243 245 247 249 251 253 256 259 263 268 274 279 282 285 288 291 295 296 297 298
257 257 257 257 256 256 256 255 252 249 246 241 238 235 233 232 233 236 239 242 242 241 240 242 244 246 248 251 254 256 259 262 265 269 273 276 279 283 287 290 292 293 294
256 255 255 254 254 254 254 254 252 250 246 243 240 239 237 233 232 232 235 238 240 241 241 241 243 245 247 250 252 256 258 261 264 266 268 271 274 277 281 286 289 290 291
257 255 253 253 252 251 250 251 249 249 247 246 243 241 241 236 233 233 233 235 238 240 241 242 243 245 246 249 251 255 257 258 261 264 266 268 270 273 276 280 284 287 288
258 255 252 250 250 248 247 246 246 244 245 245 244 240 240 238 234 233 232 232 234 238 240 242 242 243 244 247 250 253 255 257 259 261 264 266 268 271 274 276 280 284 287
257 255 252 249 248 247 245 244 242 242 242 242 242 242 240 237 233 231 233 233 233 233 236 239 241 242 243 245 248 250 253 255 258 261 264 267 268 269 272 274 277 281 284
257 254 252 248 246 245 243 241 239 239 238 238 239 240 237 234 232 230 231 232 231 231 232 236 239 240 242 243 245 248 252 255 257 261 264 266 268 269 272 274 276 279 282
256 253 251 248 245 243 240 238 236 235 235 235 236 236 235 234 232 230 230 230 229 228 228 231 234 236 239 242 244 247 251 255 258 261 264 267 268 270 272 274 275 277 280
259 254 251 248 244 241 237 234 233 232 232 233 233 233 234 234 232 230 228 228 227 227 227 229 230 231 235 239 242 246 250 254 258 260 264 266 268 269 271 273 275 277 279
264 255 253 248 243 238 235 232 230 230 230 230 231 231 231 231 230 229 228 227 227 228 228 229 229 228 230 233 238 244 250 254 255 259 263 266 268 269 270 272 275 277 278
279 266 260 251 243 237 233 230 229 229 229 228 228 228 230 230 229 229 227 227 229 229 229 230 229 229 229 231 234 240 246 251 254 259 263 266 268 269 269 272 274 274 277
313 291 274 259 247 238 232 229 229 230 229 227 228 229 229 228 229 229 227 228 229 230 229 230 230 230 231 232 235 239 243 247 253 257 260 264 268 269 270 271 272 274 275
339 316 293 271 254 239 231 229 228 227 227 226 228 229 230 231 231 230 228 229 229 230 231 231 231 232 233 235 236 238 244 249 253 256 259 263 266 268 269 271 273 274 275
354 343 321 299 274 250 234 230 227 227 226 225 226 227 228 230 231 229 229 229 230 231 231 232 234 234 234 236 238 242 245 249 252 256 260 263 265 267 269 270 271 272 273
359 351 339 322 300 275 245 234 232 230 227 225 226 227 229 230 231 230 230 229 230 231 231 232 234 234 234 236 239 241 244 248 250 253 258 261 264 267 269 268 268 270 271
2 356 346 333 313 288 265 249 241 236 231 230 230 230 230 230 230 230 230 230 231 232 233 233 233 234 235 237 239 241 244 247 249 251 256 259 262 264 267 265 266 268 269
2 357 349 336 317 297 279 263 250 240 234 233 232 231 231 230 230 229 230 231 233 233 233 233 232 234 235 235 237 240 243 246 249 253 257 259 261 262 263 264 266 265 265
2 357 350 341 327 308 288 271 260 248 239 237 236 234 233 230 228 226 228 228 230 230 231 232 232 233 234 236 239 241 243 246 248 252 254 256 257 258 259 261 261 260 260
3 359 352 345 334 320 303 286 272 255 246 242 239 234 232 231 229 229 229 228 228 229 230 230 231 232 234 236 238 239 241 243 245 248 249 249 250 253 256 256 254 254 257
6 3 358 352 344 331 316 298 280 261 249 243 239 234 229 228 227 227 228 228 228 229 230 230 230 231 233 234 236 237 237 239 240 242 244 245 247 248 248 248 250 251 253
9 7 3 360 355 347 334 315 293 269 250 241 235 230 226 222 223 223 223 223 224 225 225 227 228 228 228 229 232 233 234 236 239 240 240 241 241 240 241 244 245 246 248
12 10 8 4 360 354 345 331 310 279 253 238 230 223 219 217 216 215 216 217 219 221 221 221 222 220 221 225 227 228 229 232 233 234 234 234 233 234 237 239 241 241 241
Height
5882 5883 5883 5885 5886 5887 5889 5890 5892 5894 5896 5897 5898 5899 5900 5901 5901 5902 5903 5904 5904 5905 5905 5906 5906 5907 5907 5907 5908 5908 5908 5909 5909 5909 5910 5910 5910 5910 5910 5910 5910 5910 5910
5875 5876 5877 5878 5879 5880 5882 5884 5886 5888 5890 5892 5894 5895 5897 5897 5898 5899 5900 5902 5902 5903 5904 5905 5905 5906 5906 5907 5907 5907 5908 5908 5908 5909 5909 5909 5909 5909 5909 5909 5909 5909 5909
5867 5869 5870 5871 5872 5874 5875 5877 5879 5882 5884 5886 5888 5890 5892 5893 5894 5896 5897 5898 5900 5901 5902 5902 5903 5904 5905 5905 5906 5906 5906 5907 5907 5907 5908 5908 5908 5908 5908 5908 5908 5907 5907
5858 5860 5862 5864 5865 5867 5869 5870 5872 5874 5876 5879 5882 5885 5887 5889 5890 5891 5893 5894 5896 5897 5898 5900 5901 5902 5902 5903 5904 5904 5905 5905 5905 5906 5906 5906 5906 5906 5906 5906 5906 5905 5905
5849 5851 5853 5855 5858 5860 5861 5863 5864 5867 5869 5872 5875 5878 5881 5883 5885 5886 5888 5890 5891 5893 5895 5896 5897 5899 5900 5900 5901 5902 5902 5903 5903 5904 5904 5904 5904 5904 5904 5904 5904 5903 5903
5838 5840 5843 5845 5848 5851 5853 5855 5857 5859 5861 5864 5868 5871 5874 5877 5880 5881 5883 5884 5886 5888 5890 5892 5893 5895 5896 5897 5898 5899 5899 5900 5901 5901 5901 5902 5902 5902 5902 5901 5901 5901 5900
5826 5829 5832 5834 5837 5841 5844 5846 5849 5851 5854 5857 5860 5863 5866 5870 5873 5875 5877 5879 5881 5883 5885 5887 5889 5890 5892 5893 5894 5895 5896 5897 5897 5898 5898 5899 5899 5899 5899 5899 5898 5898 5898
5815 5818 5821 5824 5826 5830 5834 5837 5840 5843 5846 5849 5852 5855 5858 5862 5865 5868 5871 5873 5875 5877 5879 5881 5883 5885 5887 5889 5890 5891 5892 5893 5893 5894 5895 5895 5895 5896 5896 5895 5895 5895 5894
5803 5806 5809 5812 5815 5819 5823 5827 5830 5834 5837 5841 5844 5848 5851 5854 5858 5861 5864 5867 5869 5871 5873 5875 5878 5880 5882 5883 5885 5886 5887 5888 5889 5889 5890 5891 5891 5892 5892 5892 5891 5891 5891
5791 5794 5797 5801 5804 5807 5811 5816 5820 5824 5828 5832 5835 5840 5844 5847 5850 5854 5857 5860 5863 5865 5867 5869 5872 5874 5876 5878 5879 5881 5882 5883 5884 5885 5885 5886 5887 5887 5887 5887 5887 5887 5886
5780 5783 5785 5788 5792 5796 5800 5804 5809 5814 5818 5823 5827 5831 5834 5838 5842 5846 5849 5852 5856 5858 5861 5863 5865 5868 5870 5872 5873 5875 5876 5877 5879 5880 5880 5881 5882 5882 5883 5883 5883 5882 5882
5770 5772 5774 5777 5780 5784 5788 5793 5798 5803 5808 5813 5817 5822 5825 5829 5833 5837 5841 5844 5848 5851 5854 5857 5859 5861 5863 5866 5867 5869 5871 5872 5873 5874 5875 5876 5877 5877 5878 5878 5877 5877 5876
5762 5762 5764 5766 5769 5773 5777 5782 5787 5792 5797 5802 5807 5811 5816 5820 5824 5828 5831 5835 5839 5843 5846 5850 5853 5855 5857 5860 5862 5863 5865 5867 5868 5869 5870 5871 5871 5872 5872 5872 5872 5872 5871
5755 5755 5756 5757 5759 5762 5766 5771 5776 5782 5787 5792 5797 5801 5806 5810 5814 5819 5823 5827 5831 5835 5838 5842 5846 5849 5851 5854 5856 5858 5859 5861 5862 5863 5864 5865 5866 5866 5866 5867 5867 5866 5866
5750 5749 5749 5750 5751 5753 5757 5761 5766 5771 5776 5781 5786 5791 5796 5801 5805 5809 5814 5818 5823 5826 5831 5834 5838 5842 5844 5847 5850 5852 5853 5855 5856 5857 5858 5859 5859 5860 5860 5861 5860 5860 5860
5747 5746 5745 5745 5745 5746 5749 5753 5757 5761 5766 5771 5776 5781 5786 5791 5795 5800 5805 5809 5813 5818 5822 5826 5830 5834 5837 5840 5843 5845 5847 5848 5850 5851 5852 5853 5853 5854 5854 5854 5854 5853 5853
5746 5744 5743 5742 5741 5742 5744 5746 5749 5753 5757 5762 5767 5772 5777 5782 5786 5791 5795 5800 5804 5809 5813 5818 5822 5825 5829 5833 5836 5838 5840 5842 5844 5845 5846 5846 5847 5847 5847 5847 5847 5846 5846
5746 5744 5742 5740 5739 5739 5740 5742 5744 5747 5751 5755 5759 5764 5769 5773 5778 5782 5787 5791 5795 5800 5805 5809 5813 5817 5821 5825 5828 5831 5833 5835 5836 5838 5839 5839 5840 5840 5840 5840 5840 5839 5839
5746 5743 5741 5739 5738 5737 5737 5738 5740 5742 5745 5749 5752 5756 5761 5765 5769 5774 5778 5783 5787 5791 5796 5800 5805 5809 5813 5816 5820 5823 5825 5827 5829 5831 5832 5832 5833 5833 5833 5833 5833 5833 5832
5746 5743 5740 5738 5737 5736 5735 5735 5736 5738 5741 5743 5746 5750 5753 5757 5761 5765 5770 5774 5779 5783 5787 5792 5797 5800 5804 5808 5812 5815 5818 5820 5822 5824 5825 5826 5826 5827 5827 5827 5827 5827 5826
5746 5743 5740 5737 5735 5734 5733 5733 5733 5734 5736 5738 5740 5743 5746 5750 5754 5757 5762 5766 5771 5775 5780 5784 5788 5792 5796 5800 5804 5807 5810 5813 5815 5817 5818 5819 5820 5821 5821 5821 5821 5821 5821
5746 5742 5739 5736 5733 5731 5730 5729 5729 5729 5731 5733 5735 5737 5740 5743 5747 5751 5755 5759 5763 5767 5772 5776 5780 5785 5789 5793 5797 5800 5803 5806 5808 5810 5811 5812 5814 5815 5815 5816 5816 5816 5816
5745 5741 5737 5733 5730 5728 5726 5725 5724 5724 5725 5727 5728 5731 5734 5737 5741 5745 5749 5753 5757 5760 5765 5769 5773 5777 5782 5786 5789 5792 5795 5798 5801 5803 5805 5806 5808 5809 5810 5810 5811 5811 5811
5745 5740 5736 5732 5728 5725 5723 5721 5720 5719 5720 5721 5723 5726 5729 5732 5736 5739 5743 5747 5751 5755 5759 5763 5767 5771 5775 5778 5782 5785 5788 5791 5794 5797 5799 5801 5802 5804 5805 5806 5807 5807 5807
5746 5741 5736 5731 5727 5723 5719 5717 5715 5715 5715 5716 5718 5721 5724 5727 5731 5735 5738 5742 5746 5750 5753 5757 5761 5765 5768 5772 5776 5779 5782 5785 5788 5791 5793 5796 5797 5799 5800 5801 5802 5803 5804
5747 5742 5736 5731 5726 5721 5717 5713 5711 5710 5710 5711 5713 5716 5719 5723 5727 5730 5734 5738 5742 5745 5749 5752 5756 5759 5763 5767 5770 5774 5777 5780 5783 5786 5788 5790 5792 5794 5796 5797 5798 5799 5800